Location: Eisingen in Unterfranken
(49.7591°N, 9.8347°E)
Time: 01:23:49
(UTC+01:00)

BlueWalker 3 - Pass Details

Date: 30 November 2022
Orbit: 499 x 517 km, 53.2° (Epoch: 26 January)

Event Time Altitude Azimuth Distance (km) Brightness Sun altitude
Rises 19:04:38 0° 280° (W) 2,630 6.8 -25.2°
Reaches altitude 10° 19:06:54 10° 285° (WNW) 1,739 5.6 -25.6°
Enters shadow 19:09:34 36° 312° (NW) 822 3.3 -26.0°
